Home > Weather > Ahmedabad > Past weeks

Flag for India Weather for the Past 2 Weeks in Ahmedabad, Gujarat, India

Now
84 °F

Clear.


Feels Like: 87 °F
Forecast: 81 / 106 °F
Wind: 7 mph from West

Location: Ahmadabad Airport

Current Time: May 6, 2016 at 7:33:07 AM

Latest Report: May 6, 2016 at 7:00 AM


Visibility: 2 mi

Pressure: 29.77 "Hg

Humidity: 58%

Dew Point: 68 °F

Location of AhmedabadLocation

Historic Weather in Ahmedabad — Graph

°F

Ahmedabad Temperature Yesterday

Maximum temperature yesterday: 106 °F (at 3:30 PM)
Minimum temperature yesterday: 84 °F (at 5:30 AM)
Average temperature yesterday: 94 °F

High & Low Weather Summary for the Past Weeks

 TemperatureHumidityPressure
High113 °F (Apr 29, 2:30 PM)74% (Apr 23, 6:30 AM)29.86 "Hg (Apr 23, 6:30 AM)
Low77 °F (Apr 21, 6:30 AM)9% (Apr 29, 3:30 PM)29.59 "Hg (Apr 23, 5:00 PM)
Average93 °F38%29.72 "Hg
* Reported Apr 21 6:30 AM — May 6 6:30 AM, Ahmedabad, Weather by CustomWeather, © 2016

Note: Actual official high and low records may vary slightly from our data, if they occured in-between our weather recording intervals... More about our weather records

Advertising

Ahmedabad Weather History for the Previous 24 Hours

Scroll right to see more
 ConditionsComfort  
Time TempWeatherWind HumidityBarometerVisibility
6:30 AM
Fri, May 6
84 °FClear.7 mph58%29.77 "Hg2 mi
6:00 AM84 °FClear.7 mph55%29.74 "Hg2 mi
5:30 AM84 °FClear.7 mph55%29.74 "Hg2 mi
5:00 AM86 °FClear.7 mph52%29.74 "Hg2 mi
4:30 AM86 °FClear.7 mph52%29.74 "Hg2 mi
4:00 AM86 °FClear.7 mph49%29.71 "Hg2 mi
3:30 AM86 °FClear.8 mph49%29.71 "Hg2 mi
3:00 AM88 °FClear.7 mph43%29.74 "Hg2 mi
2:30 AM88 °FClear.6 mph35%29.74 "Hg2 mi
2:00 AM88 °FClear.5 mph31%29.74 "Hg2 mi
1:30 AM88 °FClear.2 mph29%29.74 "Hg2 mi
1:00 AM88 °FClear.No wind29%29.74 "Hg2 mi
12:30 AM90 °FClear.2 mph29%29.74 "Hg2 mi
12:00 AM90 °FClear.2 mph29%29.74 "Hg2 mi
11:30 PM
Thu, May 5
91 °FClear.3 mph30%29.74 "Hg2 mi
11:00 PM91 °FClear.2 mph32%29.74 "Hg2 mi
10:30 PM93 °FClear.3 mph28%29.74 "Hg2 mi
10:00 PM93 °FClear.5 mph24%29.74 "Hg2 mi
9:30 PM95 °FClear.2 mph23%29.71 "Hg2 mi
9:00 PM95 °FClear.3 mph22%29.71 "Hg2 mi
8:30 PM93 °FClear.3 mph24%29.71 "Hg2 mi
8:00 PM95 °FClear.3 mph23%29.71 "Hg2 mi
7:30 PM97 °FClear.6 mph22%29.71 "Hg2 mi
7:00 PM99 °FPassing clouds.3 mph22%29.68 "Hg2 mi
6:30 PM102 °FClear.5 mph16%29.68 "Hg2 mi
6:00 PM104 °FClear.6 mph17%29.68 "Hg2 mi
5:30 PM106 °FPassing clouds.8 mph15%29.68 "Hg2 mi
4:30 PM106 °FScattered clouds.3 mph17%29.68 "Hg2 mi
4:00 PM106 °FScattered clouds.5 mph18%29.71 "Hg2 mi
3:30 PM106 °FScattered clouds.7 mph17%29.71 "Hg2 mi
3:00 PM104 °FScattered clouds.7 mph17%29.74 "Hg1 mi
2:00 PM104 °FScattered clouds.6 mph17%29.74 "Hg1 mi
1:30 PM104 °FScattered clouds.3 mph20%29.77 "Hg1 mi
12:30 PM102 °FPassing clouds.5 mph24%29.77 "Hg1 mi
12:00 PM100 °FDuststorm.5 mph24%29.80 "Hg2 mi
11:30 AM99 °FDuststorm.3 mph31%29.80 "Hg1 mi
11:00 AM97 °FDuststorm.2 mph34%29.80 "Hg1 mi
10:30 AM95 °FDuststorm.3 mph36%29.80 "Hg1 mi
10:00 AM93 °FDuststorm.6 mph39%29.80 "Hg1 mi
9:30 AM91 °FDuststorm.5 mph41%29.80 "Hg1 mi
9:00 AM88 °FDuststorm.3 mph46%29.80 "Hg1 mi
8:30 AM88 °FDuststorm.5 mph43%29.80 "Hg1 mi
8:00 AM86 °FDuststorm.5 mph49%29.77 "Hg1 mi
7:30 AM84 °FDuststorm.5 mph48%29.77 "Hg1 mi
7:00 AM84 °FDuststorm.5 mph48%29.74 "Hg1 mi
Weather by CustomWeather, © 2016

See weather overviewHow to use our weather pages